Starlink 6277

operational
NORAD ID: 56399 Int'l Des: 2023-061 Owner: SPXS Country: US Constellation: starlink
LEOCIRCULAR

Starlink 6277について

説明を読み込み中...

リアルタイム位置

3D地球を読み込み中...

次回通過

高度履歴

Altitude vs Time

uPlot chart will show altitude changes over time

軌道要素

1 56399U 23061AB 25354.07020870 -.00000018 00000-0 13703-4 0 9995
2 56399 43.0024 257.4620 0000950 275.2848 84.7885 15.02536207144924
Epoch: Dec 20, 2025 • Age: 30 hours

現在のステータス

高度 564.3 km
速度 7.58 km/s
衛星直下点 -23.87°S, 14.75°E
打ち上げ日 May 4, 2023
運用期間 2.6 years
タイプ internet

技術仕様

分類 Payload
質量 305.00 kg
乾燥質量 290.00 kg
総質量 305.00 kg
長さ 0.20 m
直径 2.80 m
スパン 9.00 m
形状 Box + pan
製造者 SPXS
バスタイプ Starlink
フェーズステータス In Orbit
所有者/国 SPXS/US

大規模コンステレーション

Loading constellations...